EW2785 Weather Reports


time (UTC)temp
C
wind
direction
speed
KPH
gust
KPH
rain 1hr
cm
rain 24hr
cm
rain mn
cm
humidity
%
barometer
mb
20260905011551 19 324 0.0 0.0 0.00 0.00 0.00 79 1010.7
20260905010049 20 324 0.0 1.6 0.00 0.00 0.00 78 1010.5
20260905004550 20 325 0.0 1.6 0.00 0.00 0.00 79 1010.6
20260905003049 20 327 0.0 1.6 0.00 0.00 0.00 78 1010.5
20260905001548 20 327 0.0 4.8 0.00 0.00 0.00 78 1010.6
20260905000048 20 13 3.2 8.0 0.00 0.00 0.00 77 1010.4
20260904234547 21 342 0.0 4.8 0.00 0.00 0.00 76 1010.0
20260904233051 21 333 0.0 0.0 0.00 0.00 0.00 76 1010.0
20260904231546 21 333 0.0 0.0 0.00 0.00 0.00 74 1009.8
20260904230046 21 333 0.0 1.6 0.00 0.00 0.00 73 1009.9
20260904224600 22 333 0.0 3.2 0.00 0.00 0.00 72 1009.8
20260904223048 22 327 0.0 1.6 0.00 0.00 0.00 73 1009.7
20260904221548 22 295 0.0 1.6 0.00 0.00 0.00 73 1009.7
20260904220044 22 295 0.0 1.6 0.00 0.00 0.00 73 1009.7
20260904214546 22 294 0.0 1.6 0.00 0.00 0.00 72 1009.7
20260904213042 22 294 0.0 1.6 0.00 0.00 0.00 70 1009.7
20260904211541 22 294 0.0 1.6 0.00 0.00 0.00 69 1009.8
20260904210049 23 319 0.0 4.8 0.00 0.00 0.00 68 1009.9
20260904204539 23 249 0.0 8.0 0.00 0.00 0.00 68 1009.9
20260904203039 23 346 0.0 6.4 0.00 0.00 0.00 66 1009.9
20260904201550 23 298 1.6 9.7 0.00 0.00 0.00 64 1010.0
20260904200038 23 326 0.0 4.8 0.00 0.00 0.00 65 1009.9
20260904194544 23 258 0.0 4.8 0.00 0.00 0.00 66 1009.9
20260904193036 23 11 1.6 8.0 0.00 0.00 0.00 67 1009.9
20260904191537 23 283 1.6 9.7 0.00 0.00 0.00 64 1010.0
20260904190034 23 232 1.6 9.7 0.00 0.00 0.00 65 1010.1
20260904184534 23 344 1.6 9.7 0.00 0.00 0.00 64 1010.4
20260904183033 23 309 4.8 12.9 0.00 0.00 0.00 64 1010.4
20260904181533 23 304 0.0 12.9 0.00 0.00 0.00 65 1010.2
20260904180034 23 28 3.2 12.9 0.00 0.00 0.00 65 1010.3
20260904174532 23 293 1.6 8.0 0.00 0.00 0.00 64 1010.3
20260904173030 23 69 1.6 12.9 0.00 0.00 0.00 65 1010.3
20260904171534 23 154 1.6 9.7 0.00 0.00 0.00 64 1010.2
20260904170027 23 348 1.6 12.9 0.00 0.00 0.00 66 1010.2
20260904164525 22 335 1.6 11.3 0.00 0.00 0.00 67 1010.5
20260904163030 22 218 1.6 14.5 0.00 0.00 0.00 69 1010.5
20260904161522 22 253 0.0 8.0 0.00 0.00 0.00 70 1010.6
20260904160021 22 294 1.6 14.5 0.00 0.00 0.00 71 1010.9
20260904154520 22 315 3.2 14.5 0.00 0.00 0.00 69 1011.1
20260904153021 21 337 4.8 16.1 0.00 0.00 0.00 71 1011.1
20260904151516 21 317 0.0 6.4 0.00 0.00 0.00 72 1011.0
20260904150025 21 5 0.0 9.7 0.00 0.00 0.00 75 1011.2
20260904144510 20 294 1.6 12.9 0.00 0.00 0.00 78 1011.1
20260904143006 20 28 3.2 8.0 0.00 0.00 0.00 85 1011.1
20260904141503 18 24 3.2 8.0 0.00 0.00 0.00 91 1011.1
20260904140100 18 5 3.2 6.4 0.00 0.00 0.00 93 1011.1
20260904134559 17 208 1.6 3.2 0.00 0.00 0.00 93 1011.1
20260904133053 17 209 0.0 1.6 0.00 0.00 0.00 94 1011.1
20260904131553 16 209 1.6 3.2 0.00 0.00 0.00 94 1011.1
20260904130050 16 207 0.0 1.6 0.00 0.00 0.00 94 1011.1
20260904124550 16 207 0.0 1.6 0.00 0.00 0.00 94 1011.2
20260904123049 15 207 0.0 1.6 0.00 0.00 0.00 94 1011.4
20260904121549 15 207 0.0 0.0 0.00 0.00 0.00 93 1011.4
20260904120050 14 207 0.0 0.0 0.00 0.00 0.00 93 1011.4
20260904114547 14 207 0.0 0.0 0.00 0.00 0.00 93 1011.4
20260904113044 13 207 0.0 0.0 0.00 0.00 0.00 93 1011.2
20260904111543 13 207 0.0 0.0 0.00 0.00 0.00 92 1011.0
20260904110041 13 207 0.0 0.0 0.00 0.00 0.00 92 1010.8
20260904104541 13 207 0.0 0.0 0.00 0.00 0.00 92 1010.7
20260904103039 14 207 0.0 0.0 0.00 0.00 0.00 92 1010.6
20260904101538 14 207 0.0 0.0 0.00 0.00 0.00 92 1010.6
20260904100039 14 207 0.0 0.0 0.00 0.00 0.00 92 1010.4
20260904094543 14 207 0.0 0.0 0.00 0.00 0.00 92 1010.4
20260904093036 14 207 0.0 0.0 0.00 0.00 0.00 92 1010.2
20260904091535 15 207 0.0 0.0 0.00 0.00 0.00 92 1010.1
20260904090036 15 207 0.0 0.0 0.00 0.00 0.00 92 1009.9
20260904084534 15 207 0.0 0.0 0.00 0.00 0.00 92 1010.0
20260904083041 15 207 0.0 0.0 0.00 0.00 0.00 92 1010.0
20260904081531 15 207 0.0 0.0 0.00 0.00 0.00 92 1010.2
20260904080031 15 207 0.0 0.0 0.00 0.00 0.00 92 1010.1
20260904074530 15 207 0.0 0.0 0.00 0.00 0.00 92 1010.2
20260904073029 15 207 0.0 0.0 0.00 0.00 0.00 91 1010.0
20260904071528 15 207 0.0 0.0 0.00 0.00 0.00 92 1009.9
20260904070025 15 207 0.0 0.0 0.00 0.00 0.00 91 1009.9
20260904064524 15 207 0.0 0.0 0.00 0.00 0.00 92 1010.0
20260904063025 16 207 0.0 0.0 0.00 0.00 0.00 92 1010.1
20260904061521 16 207 0.0 0.0 0.00 0.00 0.00 91 1010.3
20260904060021 16 207 0.0 0.0 0.00 0.00 0.00 92 1010.6
20260904054517 16 207 0.0 0.0 0.00 0.00 0.00 91 1010.5
20260904053019 16 207 0.0 0.0 0.00 0.00 0.00 91 1010.8
20260904051514 16 207 0.0 0.0 0.00 0.00 0.00 90 1010.9
20260904050012 16 207 0.0 0.0 0.00 0.00 0.00 90 1011.0
20260904044513 16 207 0.0 0.0 0.00 0.00 0.00 90 1011.0
20260904043013 16 207 0.0 0.0 0.00 0.00 0.00 90 1011.1
20260904041509 17 207 0.0 0.0 0.00 0.00 0.00 89 1011.0
20260904040004 17 207 0.0 0.0 0.00 0.00 0.00 89 1011.2
20260904034503 17 207 0.0 0.0 0.00 0.00 0.00 89 1011.1
20260904033004 17 207 0.0 0.0 0.00 0.00 0.00 89 1011.3
20260904031503 17 207 0.0 0.0 0.00 0.00 0.00 89 1011.3
20260904030002 17 207 0.0 0.0 0.00 0.00 0.00 88 1011.4
20260904024504 18 207 0.0 0.0 0.00 0.00 0.00 88 1011.4
20260904023001 18 207 0.0 0.0 0.00 0.00 0.00 88 1011.4
20260904021501 18 207 0.0 0.0 0.00 0.00 0.00 87 1011.5
20260904020109 18 207 0.0 0.0 0.00 0.00 0.00 87 1011.4
20260904014613 19 207 0.0 0.0 0.00 0.00 0.00 86 1011.4
20260904013059 20 207 0.0 1.6 0.00 0.00 0.00 86 1011.3